Regional Weather Roundup
Issued by NWS Green Bay, WI

Home | Current Version | Previous Version | Text Only | Print | Product List | Glossary On
Versions: 1 2 3 4 5 6 7 8 9 10 11 12 13 14 15 16 17 18 19 20 21 22 23 24 25 26 27 28 29 30 31 32 33 34 35 36 37 38 39 40 41 42 43 44 45 46 47 48 49 50
658
ASUS43 KGRB 291811
RWRGRB

NORTH-CENTRAL AND NORTHEAST WISCONSIN REGIONAL WEATHER ROUNDUP
NATIONAL WEATHER SERVICE GREEN BAY WI
100 PM CDT FRI APR 29 2016

WIZ005-009-010>012-018-019-291900-
NORTH CENTRAL WISCONSIN

CITY           SKY/WX    TMP DP  RH WIND       PRES   REMARKS
IRONWOOD         N/A     48  30  49 N10       30.13F
MANITOWISH WTR PTSUNNY   51  31  46 NW6       30.12R
ARBOR VITAE    PTSUNNY   53  33  45 N3        30.13R
EAGLE RIVER    PTSUNNY   51  31  45 N8        30.12S
LAND O LAKES   MOSUNNY   52  31  43 CALM      30.13S
RHINELANDER    CLOUDY    51  32  48 CALM      30.13R
PHILLIPS       CLOUDY    52  32  46 CALM      30.12R
ANTIGO         CLOUDY    52  32  46 CALM      30.12R
TOMAHAWK       PTSUNNY   51  33  51 N5        30.13R
MERRILL        MOSUNNY   54  36  50 NE8       30.12S
$$

WIZ013-073-291900-
NORTHEAST WISCONSIN

CITY           SKY/WX    TMP DP  RH WIND       PRES   REMARKS
IRON MOUNTAIN  MOSUNNY   56  23  27 E9G20     30.11F
MARINETTE      CLOUDY    48  25  40 E13       30.14R
OCONTO         CLOUDY    48  29  47 E7        30.14R
$$

WIZ017-030-035>037-045-291900-
CENTRAL WISCONSIN

CITY           SKY/WX    TMP DP  RH WIND       PRES   REMARKS
MEDFORD        PTSUNNY   49  36  61 E6        30.13F
WAUSAU         PTSUNNY   54  35  48 E8        30.11R
MOSINEE        PTSUNNY   52  36  54 E8        30.14R
MARSHFIELD     PTSUNNY   51  37  58 N7G18     30.12R
WISC RAPIDS    CLOUDY    51  33  50 VRB3      30.14R
STEVENS POINT  CLOUDY    51  33  49 NE9G16    30.13R
WAUPACA        CLOUDY    55  34  44 NE6       30.14R
SHAWANO        CLOUDY    54  35  48 E9        30.13R
CLINTONVILLE   CLOUDY    54  32  43 NE6       30.14R
WAUTOMA        NOT AVBL
$$

WIZ038-039-048-051-291900-
FOX VALLEY

CITY           SKY/WX    TMP DP  RH WIND       PRES   REMARKS
NWS GREEN BAY  PTSUNNY   53  31  42 NE15      30.13S
APPLETON       PTSUNNY   52  28  40 NE10G20   30.11R
OSHKOSH        CLOUDY    52  34  50 N8G16     30.12R
FOND DU LAC    CLOUDY    50  36  58 N6        30.13R
$$

WIZ022-050-052-291900-
EAST CENTRAL WISCONSIN

CITY           SKY/WX    TMP DP  RH WIND       PRES   REMARKS
EPHRAIM        FAIR      47  29  50 N8        30.12S
STURGEON BAY   CLOUDY    48  27  43 E10       30.15R
MANITOWOC      PTSUNNY   49  32  52 N10G22    30.14R
SHEBOYGAN      MOSUNNY   49  33  54 NE12      30.13S
$$

LMZ563-521-522-541>543-291900-
LAKESHORE

STATION/POSITION TIME  TEMP    WIND        PRES    VSBY  WAVE
                       AIR SEA DIR/SP/G                  HT/PER
                 (UTC) (F)     (DEG/KT/KT) (MB)    (MI)  (FT/S)
SHEBOYGAN LKSHOR 1800   41      10/  3/  4 1021.4R
KEWAUNEE LKSHORE 1700   43      40/ 12/ 15 1019.9S
ALGOMA MARINA    1730           70/ 14/ 16   N/A
NORTHPORT PIER   1700   41     330/  5/  7 1020.7F
N MID LAKE BUOY  1750   39 39  330/  6/  8 1020.6F         1
CHAMBERS ISLAND  1700   43      20/  8/ 10 1020.7F
MENOMINEE LKSHOR 1700   41      40/  8/ 10 1019.5F
$$




USA.gov is the U.S. government's official web portal to all federal, state and local government web resources and services.